San Lorenzo, CA

3:34 PM PST on February 05, 2016 (GMT -0800)
Hayward Executive

Weather History for KHWD - November, 2013

Change the Weather History Date:

Sunday, November 10, 2013

  Actual Average Record
Temperature  
Mean Temperature 56 °F 57 °F  
Max Temperature 65 °F 65 °F 68 °F (2014)
Min Temperature 46 °F 49 °F 43 °F (2000)
Degree Days  
Heating Degree Days 9    
Month to date heating degree days 59  
Since 1 July heating degree days 267  
Cooling Degree Days 0    
Month to date cooling degree days 0  
Year to date cooling degree days 250  
Growing Degree Days 5 (Base 50)    
Moisture  
Dew Point 48 °F    
Average Humidity 75    
Maximum Humidity 93    
Minimum Humidity 56    
Precipitation  
Precipitation 0.00 in - 0.44 in (2007)
Month to date precipitation 0.00  
Year to date precipitation 1.71  
Since 1 July precipitation 0.22  
Sea Level Pressure  
Sea Level Pressure 30.11 in    
Wind  
Wind Speed 4 mph (NNW)    
Max Wind Speed 17 mph    
Max Gust Speed 18 mph    
Visibility 8 miles    
Events      
T = Trace of Precipitation, MM = Missing Value Source: NWS Daily Summary

Daily Weather History Graph

Daily Weather History Graph

Search for Another Location

Airport or City:

Trip Planner

Search our weather history database for the weather conditions in past years. The results will help you decide how hot, cold, wet, or windy it might be!

Date:

Astronomy

Nov. 10, 2013 Rise Set
Actual Time 6:43 AM PST 5:00 PM PST
Civil Twilight 6:15 AM PST 5:28 PM PST
Nautical Twilight 5:44 AM PST 6:00 PM PST
Astronomical Twilight 5:13 AM PST 6:30 PM PST
Moon 1:02 PM PST (11/10) No Moon Set
Length of Visible Light 11h 12m
Length of Day
10h 17m
First Quarter, 56% of the Moon is Illuminated
Nov 10
First Quarter
Nov 17
Full
Nov 25
Last Quarter
Dec 2
New
Dec 9
First Quarter

Hourly Weather History & Observations

Time (PST) Temp. Dew Point Humidity Pressure Visibility Wind Dir Wind Speed Gust Speed Precip Events Conditions
12:54 AM 50.0 °F 45.0 °F 83% 30.07 in 10.0 mi ENE 3.5 mph - N/A   Clear
1:54 AM 48.0 °F 43.0 °F 83% 30.07 in 10.0 mi Calm Calm - N/A   Clear
2:54 AM 50.0 °F 44.1 °F 80% 30.07 in 10.0 mi Calm Calm - N/A   Clear
3:54 AM 48.0 °F 43.0 °F 83% 30.08 in 10.0 mi Calm Calm - N/A   Clear
4:54 AM 48.0 °F 44.1 °F 86% 30.09 in 10.0 mi NE 4.6 mph - N/A   Clear
5:04 AM 48.2 °F 44.6 °F 87% 30.06 in 10.0 mi Calm Calm - N/A   Scattered Clouds
5:16 AM 48.2 °F 44.6 °F 87% 30.06 in 10.0 mi Calm Calm - N/A   Mostly Cloudy
5:47 AM 46.4 °F 42.8 °F 87% 30.07 in 10.0 mi Calm Calm - N/A   Scattered Clouds
5:54 AM 46.9 °F 43.0 °F 86% 30.10 in 10.0 mi Calm Calm - N/A   Partly Cloudy
6:37 AM 46.4 °F 42.8 °F 87% 30.09 in 10.0 mi Calm Calm - N/A   Mostly Cloudy
6:54 AM 46.9 °F 44.1 °F 90% 30.12 in 9.0 mi East 3.5 mph - N/A   Overcast
7:23 AM 48.2 °F 44.6 °F 87% 30.10 in 8.0 mi Calm Calm - N/A   Scattered Clouds
7:39 AM 50.0 °F 46.4 °F 87% 30.10 in 7.0 mi Calm Calm - N/A   Mostly Cloudy
7:54 AM 51.1 °F 48.0 °F 89% 30.14 in 7.0 mi Calm Calm - N/A   Overcast
8:54 AM 54.0 °F 51.1 °F 90% 30.14 in 6.0 mi Calm Calm - N/A   Mostly Cloudy
9:10 AM 55.4 °F 51.8 °F 88% 30.12 in 6.0 mi Calm Calm - N/A   Scattered Clouds
9:45 AM 57.2 °F 51.8 °F 82% 30.12 in 6.0 mi Calm Calm - N/A   Haze
9:54 AM 55.9 °F 51.1 °F 84% 30.15 in 6.0 mi Calm Calm - N/A   Haze
10:35 AM 57.2 °F 51.8 °F 82% 30.13 in 5.0 mi SW 6.9 mph - N/A   Haze
10:54 AM 57.0 °F 50.0 °F 77% 30.16 in 6.0 mi Variable 4.6 mph - N/A   Haze
11:54 AM 60.1 °F 50.0 °F 69% 30.14 in 9.0 mi West 4.6 mph - N/A   Clear
12:54 PM 62.1 °F 48.9 °F 62% 30.11 in 10.0 mi Variable 4.6 mph - N/A   Clear
1:54 PM 63.0 °F 50.0 °F 63% 30.10 in 8.0 mi West 9.2 mph - N/A   Clear
2:54 PM 64.9 °F 48.9 °F 56% 30.10 in 10.0 mi West 9.2 mph - N/A   Clear
3:54 PM 62.1 °F 48.9 °F 62% 30.11 in 10.0 mi WNW 10.4 mph - N/A   Clear
4:54 PM 57.9 °F 48.9 °F 72% 30.11 in 10.0 mi NW 6.9 mph - N/A   Clear
5:54 PM 55.0 °F 48.0 °F 77% 30.12 in 10.0 mi NW 4.6 mph - N/A   Clear
6:54 PM 54.0 °F 48.0 °F 80% 30.12 in 10.0 mi NW 4.6 mph - N/A   Clear
7:54 PM 54.0 °F 48.9 °F 83% 30.14 in 9.0 mi North 3.5 mph - N/A   Clear
8:54 PM 54.0 °F 50.0 °F 86% 30.14 in 8.0 mi North 3.5 mph - N/A   Scattered Clouds
9:01 PM 53.6 °F 50.0 °F 88% 30.11 in 8.0 mi North 4.6 mph - N/A   Overcast
9:54 PM 55.0 °F 50.0 °F 83% 30.15 in 8.0 mi NNE 3.5 mph - N/A   Overcast
10:54 PM 54.0 °F 48.9 °F 83% 30.14 in 8.0 mi NE 3.5 mph - N/A   Overcast
11:36 PM 53.6 °F 48.2 °F 82% 30.11 in 7.0 mi Calm Calm - N/A   Partly Cloudy
11:54 PM 53.1 °F 48.0 °F 83% 30.14 in 7.0 mi NE 4.6 mph - N/A   Clear